YMA204 YBBN-NWWW

Flight info

Callsign YMA204
Flight time 0h 54m
Altitude 31000
Route YBBN GUMKI2 GUMKI B578 NISAS NISAS2 NWWW
Aircraft B738/M-ICAO/L

Departure

Time 2026-04-14 05:28
Airport Brisbane International Airport (YBBN)

Arrival

Time 2026-04-14 06:23
Airport La Tontouta International Airport (NWWW)
Time Latitude Longitude Altitude Speed Heading
2026-04-14 04:46 -27.38658 153.12042 21 ft 0 kts 318°
2026-04-14 05:02 -27.38664 153.12048 21 ft 2 kts 318°
2026-04-14 05:02 -27.38675 153.12059 21 ft 2 kts 318°
2026-04-14 05:02 -27.38687 153.12070 21 ft 2 kts 318°
2026-04-14 05:02 -27.38698 153.12082 21 ft 2 kts 318°
2026-04-14 05:03 -27.38709 153.12093 21 ft 2 kts 328°
2026-04-14 05:03 -27.38723 153.12097 21 ft 2 kts 360°
2026-04-14 05:03 -27.38738 153.12094 21 ft 2 kts 28°
2026-04-14 05:03 -27.38750 153.12083 21 ft 2 kts 55°
2026-04-14 05:04 -27.38754 153.12073 21 ft 0 kts 76°
2026-04-14 05:04 -27.38756 153.12065 21 ft 0 kts 79°
2026-04-14 05:06 -27.38755 153.12067 21 ft 0 kts 79°
2026-04-14 05:06 -27.38765 153.12148 21 ft 11 kts 105°
2026-04-14 05:06 -27.38783 153.12228 21 ft 9 kts 100°
2026-04-14 05:06 -27.38776 153.12300 21 ft 9 kts 68°
2026-04-14 05:07 -27.38737 153.12355 21 ft 9 kts 36°
2026-04-14 05:07 -27.38705 153.12375 21 ft 0 kts 27°
2026-04-14 05:07 -27.38694 153.12383 21 ft 2 kts 27°
2026-04-14 05:07 -27.38682 153.12389 21 ft 0 kts 28°
2026-04-14 05:08 -27.38666 153.12393 21 ft 10 kts 11°
2026-04-14 05:09 -27.38502 153.12470 21 ft 35 kts 28°
2026-04-14 05:09 -27.38450 153.12499 21 ft 0 kts 26°
2026-04-14 05:23 -27.38450 153.12500 21 ft 0 kts 26°
2026-04-14 05:23 -27.38394 153.12543 21 ft 24 kts 29°
2026-04-14 05:23 -27.38214 153.12640 21 ft 28 kts 27°
2026-04-14 05:23 -27.38036 153.12736 21 ft 27 kts 25°
2026-04-14 05:24 -27.37866 153.12834 21 ft 26 kts 27°
2026-04-14 05:24 -27.37701 153.12930 21 ft 26 kts 27°
2026-04-14 05:24 -27.37543 153.13022 21 ft 25 kts 28°
2026-04-14 05:24 -27.37388 153.13110 21 ft 24 kts 26°
2026-04-14 05:25 -27.37280 153.13228 21 ft 21 kts 100°
2026-04-14 05:25 -27.37340 153.13361 21 ft 10 kts 127°
2026-04-14 05:25 -27.37358 153.13385 21 ft 2 kts 135°
2026-04-14 05:25 -27.37362 153.13390 21 ft 0 kts 136°
2026-04-14 05:26 -27.37363 153.13390 21 ft 0 kts 136°
2026-04-14 05:26 -27.37376 153.13403 21 ft 3 kts 141°
2026-04-14 05:26 -27.37397 153.13420 21 ft 3 kts 158°
2026-04-14 05:26 -27.37425 153.13429 21 ft 4 kts 168°
2026-04-14 05:27 -27.37456 153.13431 21 ft 4 kts 188°
2026-04-14 05:27 -27.37482 153.13422 21 ft 0 kts 202°
2026-04-14 05:27 -27.37713 153.13292 21 ft 84 kts 206°
2026-04-14 05:28 -27.38502 153.12837 31 ft 164 kts 207°
2026-04-14 05:28 -27.39569 153.12228 633 ft 187 kts 206°
2026-04-14 05:28 -27.40758 153.11557 1468 ft 176 kts 206°
2026-04-14 05:28 -27.41879 153.10919 1924 ft 191 kts 204°
2026-04-14 05:29 -27.43216 153.10678 2496 ft 201 kts 168°
2026-04-14 05:29 -27.43491 153.10757 2617 ft 203 kts 160°
2026-04-14 05:29 -27.44178 153.11130 2938 ft 207 kts 147°
2026-04-14 05:29 -27.45412 153.12044 3542 ft 219 kts 145°
2026-04-14 05:30 -27.45645 153.12216 3680 ft 219 kts 145°
2026-04-14 05:30 -27.46092 153.12540 3966 ft 219 kts 146°
2026-04-14 05:30 -27.47365 153.13417 4768 ft 219 kts 149°
2026-04-14 05:31 -27.48725 153.14300 5410 ft 233 kts 153°
2026-04-14 05:31 -27.50279 153.14819 6179 ft 241 kts 177°
2026-04-14 05:31 -27.51974 153.14577 6933 ft 252 kts 193°
2026-04-14 05:31 -27.52668 153.14375 7295 ft 254 kts 194°
2026-04-14 05:32 -27.53918 153.13995 7753 ft 258 kts 194°
2026-04-14 05:32 -27.55646 153.13464 7972 ft 260 kts 196°
2026-04-14 05:32 -27.57362 153.12822 7981 ft 257 kts 198°
2026-04-14 05:32 -27.59071 153.12270 7986 ft 255 kts 189°
2026-04-14 05:33 -27.60825 153.12332 7982 ft 255 kts 164°
2026-04-14 05:33 -27.62428 153.13229 7981 ft 256 kts 143°
2026-04-14 05:33 -27.63718 153.14578 7978 ft 257 kts 131°
2026-04-14 05:34 -27.65804 153.17837 8000 ft 257 kts 125°
2026-04-14 05:34 -27.66800 153.19498 7995 ft 256 kts 125°
2026-04-14 05:34 -27.67815 153.21153 7971 ft 256 kts 126°
2026-04-14 05:34 -27.68842 153.22801 7968 ft 257 kts 126°
2026-04-14 05:35 -27.70443 153.25356 7992 ft 256 kts 126°
2026-04-14 05:35 -27.74269 153.32050 7986 ft 258 kts 115°
2026-04-14 05:35 -27.75217 153.40034 7983 ft 261 kts 81°
2026-04-14 05:35 -27.72463 153.47697 7991 ft 265 kts 66°
2026-04-14 05:36 -27.69199 153.55072 8089 ft 273 kts 57°
2026-04-14 05:36 -27.63137 153.60458 11335 ft 284 kts 21°
2026-04-14 05:36 -27.55347 153.61345 14841 ft 286 kts 348°
2026-04-14 05:36 -27.48003 153.57704 17410 ft 293 kts 324°
2026-04-14 05:37 -27.40852 153.53181 19700 ft 308 kts 336°
2026-04-14 05:37 -27.32265 153.51001 21823 ft 326 kts 349°
2026-04-14 05:37 -27.22873 153.51090 23659 ft 345 kts
2026-04-14 05:37 -27.13164 153.53534 25244 ft 364 kts 13°
2026-04-14 05:38 -27.03800 153.58279 27039 ft 379 kts 25°
2026-04-14 05:38 -26.95032 153.65259 28583 ft 394 kts 36°
2026-04-14 05:38 -26.87278 153.74208 29361 ft 410 kts 48°
2026-04-14 05:38 -26.80881 153.84933 30491 ft 421 kts 59°
2026-04-14 05:39 -26.75826 153.97061 31027 ft 433 kts 71°
2026-04-14 05:39 -26.74021 154.10397 31012 ft 443 kts 93°
2026-04-14 05:39 -26.75451 154.24280 30990 ft 452 kts 104°
2026-04-14 05:39 -26.78263 154.38055 30987 ft 459 kts 108°
2026-04-14 05:40 -26.84662 154.65549 30982 ft 456 kts 104°
2026-04-14 05:40 -26.85084 154.79787 30989 ft 464 kts 84°
2026-04-14 05:40 -26.81168 154.93651 30988 ft 466 kts 62°
2026-04-14 05:41 -26.73953 155.05521 30989 ft 463 kts 49°
2026-04-14 05:41 -26.65919 155.16786 30988 ft 464 kts 52°
2026-04-14 05:41 -26.59205 155.29010 30990 ft 465 kts 63°
2026-04-14 05:41 -26.54212 155.42413 30993 ft 465 kts 71°
2026-04-14 05:42 -26.50464 155.54565 30993 ft 465 kts 72°
2026-04-14 05:42 -26.48865 155.59613 30994 ft 465 kts 71°
2026-04-14 05:43 -26.45847 155.68337 30996 ft 472 kts 68°
2026-04-14 05:44 -26.38775 155.85841 30992 ft 474 kts 65°
2026-04-14 05:45 -26.27748 156.13252 30994 ft 495 kts 68°
2026-04-14 05:45 -26.22570 156.27417 30992 ft 508 kts 69°
2026-04-14 05:45 -26.17240 156.42261 30993 ft 520 kts 69°
2026-04-14 05:46 -26.05972 156.72325 30987 ft 530 kts 68°
2026-04-14 05:46 -25.94240 157.02237 30989 ft 528 kts 68°
2026-04-14 05:47 -25.82688 157.32210 30989 ft 528 kts 69°
2026-04-14 05:47 -25.71198 157.62030 30978 ft 526 kts 69°
2026-04-14 05:48 -25.59577 157.91623 30977 ft 526 kts 68°
2026-04-14 05:48 -25.47796 158.21403 30973 ft 528 kts 69°
2026-04-14 05:49 -25.36099 158.50891 30973 ft 527 kts 69°
2026-04-14 05:49 -25.24236 158.80574 30970 ft 526 kts 68°
2026-04-14 05:50 -25.12284 159.10217 30964 ft 528 kts 69°
2026-04-14 05:50 -25.00377 159.39565 30959 ft 527 kts 69°
2026-04-14 05:51 -24.88340 159.69064 30952 ft 527 kts 69°
2026-04-14 05:51 -24.76335 159.98270 30959 ft 529 kts 68°
2026-04-14 05:52 -24.64117 160.27773 30948 ft 527 kts 69°
2026-04-14 05:52 -24.51940 160.56984 30942 ft 528 kts 69°
2026-04-14 05:53 -24.39941 160.85431 30932 ft 492 kts 69°
2026-04-14 05:53 -24.34336 160.98613 30926 ft 469 kts 69°
2026-04-14 05:53 -24.28845 161.11575 30935 ft 470 kts 69°
2026-04-14 05:54 -24.23344 161.24648 30934 ft 484 kts 69°
2026-04-14 05:54 -24.17564 161.38358 30932 ft 499 kts 69°
2026-04-14 05:54 -24.11699 161.52141 30928 ft 512 kts 69°
2026-04-14 05:54 -24.05533 161.66493 30924 ft 525 kts 68°
2026-04-14 05:55 -23.92945 161.95548 30925 ft 531 kts 68°
2026-04-14 05:55 -23.80307 162.24667 30916 ft 531 kts 68°
2026-04-14 05:56 -23.67622 162.53819 30907 ft 532 kts 69°
2026-04-14 05:56 -23.54864 162.82881 30904 ft 533 kts 68°
2026-04-14 05:57 -23.42021 163.11945 30902 ft 534 kts 68°
2026-04-14 05:57 -23.29046 163.41263 30898 ft 538 kts 68°
2026-04-14 05:58 -23.16043 163.70464 30893 ft 539 kts 68°
2026-04-14 05:58 -23.02906 163.99736 30886 ft 540 kts 68°
2026-04-14 05:59 -22.96257 164.14485 30882 ft 541 kts 68°
2026-04-14 05:59 -22.92974 164.21753 30884 ft 540 kts 68°
2026-04-14 06:00 -22.89657 164.29091 30882 ft 542 kts 68°
2026-04-14 06:00 -22.86331 164.36403 30884 ft 541 kts 68°
2026-04-14 06:01 -22.82978 164.43744 30526 ft 541 kts 68°
2026-04-14 06:01 -22.81329 164.47350 29949 ft 542 kts 69°
2026-04-14 06:01 -22.79656 164.51001 29186 ft 538 kts 69°
2026-04-14 06:02 -22.78004 164.54599 28654 ft 529 kts 69°
2026-04-14 06:02 -22.76365 164.58165 28399 ft 530 kts 69°
2026-04-14 06:02 -22.74731 164.61736 28162 ft 536 kts 69°
2026-04-14 06:02 -22.73069 164.65369 27918 ft 536 kts 69°
2026-04-14 06:03 -22.71429 164.68945 27680 ft 535 kts 69°
2026-04-14 06:03 -22.69785 164.72530 27439 ft 535 kts 69°
2026-04-14 06:03 -22.68113 164.76170 27199 ft 535 kts 69°
2026-04-14 06:04 -22.64813 164.83344 26719 ft 535 kts 68°
2026-04-14 06:04 -22.63164 164.86923 26483 ft 534 kts 68°
2026-04-14 06:04 -22.61497 164.90540 26245 ft 534 kts 68°
2026-04-14 06:04 -22.59854 164.94101 26005 ft 534 kts 68°
2026-04-14 06:05 -22.58194 164.97697 25768 ft 533 kts 68°
2026-04-14 06:05 -22.56552 165.01253 25532 ft 532 kts 68°
2026-04-14 06:05 -22.54895 165.04835 25291 ft 532 kts 68°
2026-04-14 06:05 -22.53232 165.08431 25053 ft 530 kts 67°
2026-04-14 06:06 -22.51587 165.11983 24818 ft 528 kts 67°
2026-04-14 06:06 -22.49953 165.15506 24572 ft 524 kts 67°
2026-04-14 06:06 -22.48340 165.18982 23919 ft 519 kts 67°
2026-04-14 06:06 -22.46744 165.22418 23037 ft 514 kts 66°
2026-04-14 06:07 -22.45139 165.25873 22151 ft 509 kts 66°
2026-04-14 06:07 -22.43571 165.29246 21279 ft 502 kts 66°
2026-04-14 06:07 -22.42030 165.32562 20409 ft 496 kts 66°
2026-04-14 06:07 -22.40500 165.35851 19527 ft 488 kts 65°
2026-04-14 06:08 -22.39012 165.39046 18725 ft 467 kts 65°
2026-04-14 06:08 -22.37563 165.42157 17962 ft 458 kts 65°
2026-04-14 06:08 -22.36152 165.45189 17177 ft 452 kts 65°
2026-04-14 06:08 -22.34759 165.48184 16394 ft 446 kts 65°
2026-04-14 06:09 -22.33390 165.51128 15624 ft 439 kts 65°
2026-04-14 06:09 -22.32030 165.54047 14859 ft 433 kts 65°
2026-04-14 06:09 -22.30692 165.56915 14099 ft 426 kts 64°
2026-04-14 06:09 -22.29375 165.59738 13351 ft 420 kts 64°
2026-04-14 06:10 -22.28076 165.62518 12616 ft 413 kts 64°
2026-04-14 06:10 -22.26778 165.65294 11881 ft 407 kts 64°
2026-04-14 06:10 -22.25518 165.67989 11300 ft 397 kts 64°
2026-04-14 06:10 -22.24312 165.70566 10952 ft 381 kts 64°
2026-04-14 06:11 -22.23137 165.73074 10783 ft 362 kts 64°
2026-04-14 06:11 -22.22035 165.75426 10638 ft 344 kts 64°
2026-04-14 06:11 -22.20985 165.77667 10493 ft 329 kts 64°
2026-04-14 06:11 -22.19976 165.79820 10347 ft 314 kts 64°
2026-04-14 06:12 -22.19010 165.81883 10200 ft 302 kts 64°
2026-04-14 06:12 -22.18075 165.83881 10035 ft 291 kts 65°
2026-04-14 06:12 -22.17176 165.85799 9715 ft 288 kts 65°
2026-04-14 06:12 -22.16279 165.87714 9318 ft 288 kts 65°
2026-04-14 06:13 -22.15365 165.89662 8945 ft 286 kts 65°
2026-04-14 06:13 -22.14479 165.91548 8594 ft 284 kts 64°
2026-04-14 06:13 -22.13587 165.93446 8240 ft 281 kts 64°
2026-04-14 06:13 -22.12693 165.95346 7883 ft 279 kts 65°
2026-04-14 06:14 -22.11826 165.97188 7546 ft 276 kts 64°
2026-04-14 06:14 -22.10952 165.99046 7064 ft 279 kts 64°
2026-04-14 06:14 -22.10068 166.00926 6707 ft 276 kts 65°
2026-04-14 06:14 -22.09211 166.02751 6378 ft 273 kts 64°
2026-04-14 06:15 -22.08354 166.04575 6059 ft 269 kts 65°
2026-04-14 06:15 -22.07514 166.06360 5750 ft 264 kts 65°
2026-04-14 06:15 -22.06698 166.08087 5592 ft 255 kts 65°
2026-04-14 06:15 -22.05918 166.09746 5456 ft 245 kts 65°
2026-04-14 06:16 -22.05156 166.11362 5317 ft 236 kts 65°
2026-04-14 06:16 -22.04427 166.12909 5195 ft 228 kts 65°
2026-04-14 06:16 -22.03724 166.14403 5084 ft 219 kts 65°
2026-04-14 06:16 -22.03041 166.15832 4988 ft 211 kts 63°
2026-04-14 06:17 -22.02161 166.17087 4808 ft 211 kts 41°
2026-04-14 06:17 -22.00802 166.17636 4565 ft 216 kts
2026-04-14 06:17 -21.99338 166.17248 4333 ft 218 kts 333°
2026-04-14 06:17 -21.98148 166.16243 4096 ft 217 kts 307°
2026-04-14 06:18 -21.97407 166.14847 3864 ft 218 kts 293°
2026-04-14 06:18 -21.96663 166.13397 3537 ft 223 kts 303°
2026-04-14 06:18 -21.95867 166.11937 3175 ft 229 kts 292°
2026-04-14 06:18 -21.95553 166.10261 2842 ft 229 kts 265°
2026-04-14 06:19 -21.95892 166.08653 2803 ft 213 kts 244°
2026-04-14 06:19 -21.96676 166.07381 2794 ft 203 kts 216°
2026-04-14 06:19 -21.97930 166.06767 2792 ft 194 kts 185°
2026-04-14 06:19 -21.99275 166.06753 2790 ft 190 kts 169°
2026-04-14 06:20 -22.00492 166.07224 2780 ft 186 kts 143°
2026-04-14 06:20 -22.01321 166.08284 2786 ft 188 kts 119°
2026-04-14 06:20 -22.01767 166.09615 2720 ft 191 kts 103°
2026-04-14 06:20 -22.01710 166.11032 2415 ft 198 kts 79°
2026-04-14 06:21 -22.01287 166.12489 2029 ft 206 kts 77°
2026-04-14 06:21 -22.00891 166.13991 1564 ft 216 kts 80°
2026-04-14 06:21 -22.00518 166.15590 1055 ft 223 kts 81°
2026-04-14 06:21 -22.00165 166.17183 547 ft 216 kts 82°
2026-04-14 06:22 -22.00119 166.18681 375 ft 183 kts 100°
2026-04-14 06:22 -22.00474 166.19900 183 ft 161 kts 133°
2026-04-14 06:22 -22.01152 166.20799 52 ft 146 kts 123°
2026-04-14 06:22 -22.01600 166.21573 68 ft 89 kts 124°
2026-04-14 06:23 -22.01743 166.21811 75 ft 0 kts 121°
2026-04-14 06:23 -22.01744 166.21814 75 ft 0 kts 121°